This is the latest recevied weather packets stored in our database for station/object DK0KTL-4. If no packets are shown the sender has not sent any weather packets the latest 10 day(s).
| Time | Temp. | Humidity | Pressure | Rain* | Wind** | Luminosity | Snow |
|---|---|---|---|---|---|---|---|
| 1777891165 | 22.22° C | 47% | 1012.3 hPa | 0 mm | - | - | - |
| 1777890865 | 22.22° C | 47% | 1012.4 hPa | 0 mm | - | - | - |
| 1777890264 | 22.22° C | 49% | 1012.5 hPa | 0 mm | - | - | - |
| 1777889702 | 22.22° C | 46% | 1012.6 hPa | 0 mm | - | - | - |
| 1777889663 | 22.22° C | 46% | 1012.6 hPa | 0 mm | - | - | - |
| 1777889063 | 21.67° C | 45% | 1012.6 hPa | 0 mm | - | - | - |
| 1777888763 | 22.22° C | 47% | 1012.6 hPa | 0 mm | - | - | - |
| 1777888462 | 21.67° C | 47% | 1012.6 hPa | 0 mm | - | - | - |
| 1777887561 | 21.67° C | 46% | 1012.7 hPa | 0 mm | - | - | - |
| 1777886661 | 21.67° C | 46% | 1012.8 hPa | 0 mm | - | - | - |
| 1777886360 | 21.67° C | 48% | 1012.9 hPa | 0 mm | - | - | - |
| 1777885760 | 21.67° C | 46% | 1012.8 hPa | 0 mm | - | - | - |
| 1777885459 | 21.11° C | 47% | 1013 hPa | 0 mm | - | - | - |
| 1777884822 | 20.56° C | 48% | 1013.1 hPa | 0 mm | - | - | - |
| 1777884559 | 20.56° C | 49% | 1013.1 hPa | 0 mm | - | - | - |
| 1777884258 | 20.56° C | 48% | 1013.1 hPa | 0 mm | - | - | - |
| 1777883658 | 20.56° C | 48% | 1013 hPa | 0 mm | - | - | - |
| 1777883357 | 20.56° C | 50% | 1012.9 hPa | 0 mm | - | - | - |
| 1777883057 | 20° C | 51% | 1013.1 hPa | 0 mm | - | - | - |
| 1777882757 | 20° C | 50% | 1013 hPa | 0 mm | - | - | - |
| 1777882456 | 20° C | 49% | 1013 hPa | 0 mm | - | - | - |
| 1777881556 | 19.44° C | 52% | 1012.9 hPa | 0 mm | - | - | - |
| 1777880354 | 18.33° C | 50% | 1012.8 hPa | 0 mm | - | - | - |
| 1777879754 | 17.78° C | 56% | 1012.7 hPa | 0 mm | - | - | - |
| 1777879454 | 17.78° C | 58% | 1012.7 hPa | 0 mm | - | - | - |
* Rain latest hour (hover to see other rain measurements)
** Current wind speed in m/s (hover to see current wind gust speed)